STF-1

Last updated on Dec. 9, 2021, 12:03 a.m. UTC

1 43852U 18104D   21342.55629624  .00002523  00000+0  10423-3 0  9991
2 43852  85.0325 179.3363 0011535 261.4054  98.5882 15.23409072165450
UTC
Height (km)
Latitude
Longitude
Inclination
Orbital Period
UTC large
Height (km)
Speed (km/s)
/
Latitude / Longitude
Inclination (degrees)
Orbital Period (minutes)
Azimuth
Elevation
Range (km)
Doppler Factor
iOS Compass Heading
iOS Angle